Location: Harburg
(48.7667°N, 10.6667°E)
Time: 06:14:09
(UTC+00:00)

Terra - Pass Details

Date: 18 September 2020
Orbit: 701 x 703 km, 98.2° (Epoch: 22 October)

Event Time Altitude Azimuth Distance (km) Brightness Sun altitude
Exits shadow 21:58:06 20° 318° (NW) 1,623 4.2 -37.4°
Drops below altitude 10° 21:59:45 10° 330° (NNW) 2,182 5.1 -37.5°
Sets 22:02:11 0° 339° (NNW) 3,105 6.1 -37.6°
